Flag for Brazil Weather past 2 weeks in Rio Branco, Acre, Brazil

Now
68 °F

Clear.


Feels Like: 68 °F
Forecast: 65 / 94 °F
Wind: No wind

Location: Rio Branco Airport

Current Time: Jul 30, 2015 at 5:11:46 AM

Latest Report: Jul 30, 2015 at 4:00 AM


Visibility: 10 mi

Pressure: 29.92 "Hg

Humidity: 100%

Dew point: 68 °F

Location of Rio BrancoLocation

Historic Weather in Rio Branco — Graph

°F

Rio Branco temperature yesterday

Maximum temperature yesterday: 95 °F (at 1:00 PM)
Minimum temperature yesterday: 70 °F (at 3:00 AM)
Average temperature yesterday: 80 °F

Past Weeks' High & Low Weather Summary

 TemperatureHumidityPressure
High95 °F (Jul 29, 1:00 PM)100% (Jul 15, 3:00 AM)30.09 "Hg (Jul 15, 3:00 AM)
Low61 °F (Jul 22, 6:00 AM)39% (Jul 29, 1:00 PM)29.83 "Hg (Jul 27, 4:00 PM)
Average76 °F77%29.96 "Hg
* Reported Jul 15 3:00 AM — Jul 30 3:00 AM, Rio Branco, Weather by CustomWeather, © 2015

Note: Actual official high and low records may vary slightly from our data, if they occured in-between our weather recording intervals... More about our weather records

Advertising

Rio Branco weather history for previous 24 hours

 ConditionsComfort  
Time TempWeatherWind HumidityBarometerVisibility
3:00 AM
Thu, Jul 30
68 °FClear.No wind100%29.92 "Hg10 mi
2:00 AM68 °FClear.No wind94%29.92 "Hg10 mi
1:00 AM70 °FClear.No wind94%29.92 "Hg10 mi
12:00 AM72 °FClear.No wind88%29.95 "Hg10 mi
11:00 PM
Wed, Jul 29
72 °FClear.2 mph88%29.95 "Hg10 mi
10:00 PM75 °FPassing clouds.3 mph78%29.95 "HgN/A
9:00 PM77 °FClear.6 mph79%29.92 "Hg10 mi
8:00 PM77 °FPassing clouds.5 mph79%29.92 "HgN/A
7:00 PM79 °FPassing clouds.8 mph74%29.89 "HgN/A
6:00 PM82 °FScattered clouds.5 mph62%29.89 "HgN/A
5:00 PM88 °FScattered clouds.9 mph52%29.86 "HgN/A
4:00 PM93 °FScattered clouds.5 mph41%29.86 "HgN/A
3:00 PM95 °FScattered clouds.5 mph39%29.86 "HgN/A
2:00 PM91 °FScattered clouds.5 mph46%29.89 "HgN/A
1:00 PM95 °FScattered clouds.6 mph39%29.92 "HgN/A
12:00 PM93 °FScattered clouds.7 mph47%29.95 "HgN/A
11:00 AM90 °FScattered clouds.7 mph52%29.98 "HgN/A
10:00 AM88 °FSunny.5 mph55%30.01 "Hg10 mi
9:00 AM86 °FSunny.5 mph62%30.01 "Hg10 mi
8:00 AM81 °FSunny.2 mph74%29.98 "Hg10 mi
7:00 AM73 °FSunny.1 mph89%29.95 "Hg10 mi
6:00 AM70 °FClear.No wind94%29.92 "Hg10 mi
5:00 AM70 °FClear.No wind94%29.92 "Hg10 mi
Weather by CustomWeather, © 2015

See weather overviewHow to use our weather pages